Voltar ao catálogo

STARLINK-11249

AtivoComunicaçõesVLEO
NORAD 60728·PAYLOAD·🇺🇸 United States

Lançado Aug 28, 2024 de Cape Canaveral Space Force Station

Loading…

Próximas Passagens (próximas 24 horas)

TLE

AtualizadoSource: CelesTrak SupGP

Época: Sep 14, 2026, 22:42 UTC

1 60728C 24152J   26257.94631944  .00074269  00000+0  61155-3 0  2574
2 60728  53.1575 263.1488 0001190  97.6191 198.0026 15.69681417    12

Acompanhe STARLINK-11249 em tempo real com AllMySat

Download on the App Store